Tracking 19636 objects as of 25-May-2019
HD Live streaming from Space Station
objects crossing your sky now

INTELSAT 904

Track INTELSAT 904 now!
INTELSAT 904 is classified as:


NORAD ID: 27380
Int'l Code: 2002-007A
Perigee: 35,813.9 km
Apogee: 35,835.4 km
Inclination: 0.6 °
Period: 1,437.7 minutes
Semi major axis: 42195 km
RCS: 11.3214 m2 (large)
Launch date: February 23, 2002
Source: International Telecommunications Satellite Organization (ITSO)
Launch site: FRENCH GUIANA (FRGUI)

76 C-band, 22 Ku-band, broadcasting, business services, direct-to-home TV broadcasting, telecommunications, VSAT networks; Indian Ocean region.
aabbcc
Your satellite tracking list
Your tracking list is empty




NASA's NSSDC Master Catalog

Two Line Element Set (TLE):
1 27380U 02007A   19144.04550979  .00000062  00000-0  00000+0 0  9994
2 27380   0.5528  97.4255 0002542 329.8179 203.2166  1.00161731 63207
Source of the keplerian elements: AFSPC